When you browse on this site, cookies collect data to enhance your experience and personalize the content and advertising you see.
Visit our Privacy Policy to learn more. By continuing to use the site, you agree to this use of cookies and data.
  • In Hungary
  • List of Countries
  • For 7 days
  • Water Temperature
  • Weather Map
  • News
  • Weather Widgets
  • user-avatar
    Login

    Hourly Weather Kownaty

    Today, 23 February, Sunday

    Time Temperature Precipitation Wind Pressure Humidity
    00:00 +5°C° 0.3 mm 9 mps 748 mmHg 64%
    01:00 +5°C° 0 mm 8 mps 748 mmHg 64%
    02:00 +5°C° 0 mm 8 mps 748 mmHg 64%
    03:00 +4°C° 0 mm 8 mps 748 mmHg 65%
    04:00 +4°C° 0 mm 8 mps 748 mmHg 65%
    05:00 +2°C° 0.1 mm 8 mps 748 mmHg 70%
    06:00 +3°C° 0.1 mm 7 mps 748 mmHg 74%
    07:00 +2°C° 0.1 mm 7 mps 749 mmHg 78%
    08:00 +3°C° 0 mm 7 mps 749 mmHg 73%
    09:00 +4°C° 0 mm 8 mps 748 mmHg 69%
    10:00 +3°C° 0 mm 9 mps 748 mmHg 64%
    11:00 +5°C° 0 mm 9 mps 748 mmHg 62%
    12:00 +5°C° 0 mm 8 mps 747 mmHg 60%
    13:00 +5°C° 0 mm 8 mps 747 mmHg 58%
    14:00 +4°C° 0.1 mm 7 mps 745 mmHg 68%
    15:00 +4°C° 0.1 mm 6 mps 744 mmHg 79%
    16:00 +3°C° 0.1 mm 5 mps 743 mmHg 89%
    17:00 +4°C° 0.7 mm 4 mps 741 mmHg 91%
    18:00 +3°C° 0.7 mm 3 mps 740 mmHg 93%
    19:00 +4°C° 0.7 mm 2 mps 739 mmHg 94%
    20:00 +4°C° 1 mm 2 mps 738 mmHg 95%
    21:00 +4°C° 1 mm 2 mps 738 mmHg 95%
    22:00 +4°C° 1 mm 2 mps 737 mmHg 96%
    23:00 +2°C° 0.6 mm 5 mps 739 mmHg 90%

    Tomorrow, 24 February, Monday

    Time Temperature Precipitation Wind Pressure Humidity
    00:00 +2°C° 0.6 mm 7 mps 740 mmHg 85%
    01:00 +1°C° 0.6 mm 10 mps 741 mmHg 80%
    02:00 +1°C° 0 mm 9 mps 742 mmHg 78%
    03:00 +1°C° 0 mm 9 mps 743 mmHg 76%
    04:00 0°C° 0 mm 9 mps 744 mmHg 74%
    05:00 0°C° 0 mm 9 mps 745 mmHg 78%
    06:00 0°C° 0 mm 9 mps 747 mmHg 81%
    07:00 0°C° 0 mm 9 mps 748 mmHg 85%
    08:00 +1°C° 0.1 mm 9 mps 748 mmHg 80%
    09:00 +2°C° 0.1 mm 9 mps 749 mmHg 74%
    10:00 +2°C° 0.1 mm 9 mps 750 mmHg 68%
    11:00 +4°C° 0 mm 8 mps 750 mmHg 65%
    12:00 +4°C° 0 mm 8 mps 750 mmHg 63%
    13:00 +5°C° 0 mm 7 mps 751 mmHg 60%
    14:00 +4°C° 0 mm 7 mps 751 mmHg 62%
    15:00 +4°C° 0 mm 6 mps 751 mmHg 64%
    16:00 +5°C° 0 mm 5 mps 751 mmHg 65%
    17:00 +3°C° 0 mm 5 mps 750 mmHg 69%
    18:00 +4°C° 0 mm 4 mps 750 mmHg 72%
    19:00 +3°C° 0 mm 3 mps 750 mmHg 75%
    20:00 +3°C° 0 mm 4 mps 750 mmHg 77%
    21:00 +3°C° 0 mm 4 mps 749 mmHg 79%
    22:00 +3°C° 0 mm 4 mps 748 mmHg 80%
    23:00 +1°C° 0.2 mm 5 mps 747 mmHg 85%

    Day after tomorrow, 25 February, Tuesday

    Time Temperature Precipitation Wind Pressure Humidity
    00:00 +1°C° 0.2 mm 5 mps 746 mmHg 89%
    01:00 0°C° 0.2 mm 5 mps 745 mmHg 94%
    02:00 -1°C° 1.2 mm 6 mps 743 mmHg 94%
    03:00 -1°C° 1.2 mm 6 mps 742 mmHg 94%
    04:00 +1°C° 1.2 mm 6 mps 740 mmHg 94%
    05:00 +2°C° 1.3 mm 6 mps 740 mmHg 94%
    06:00 +3°C° 1.3 mm 6 mps 739 mmHg 93%
    07:00 +4°C° 1.3 mm 6 mps 738 mmHg 93%
    08:00 +5°C° 0.2 mm 6 mps 738 mmHg 90%
    09:00 +6°C° 0.2 mm 7 mps 738 mmHg 88%
    10:00 +6°C° 0.2 mm 7 mps 738 mmHg 85%
    11:00 +7°C° 0.1 mm 8 mps 738 mmHg 78%
    12:00 +7°C° 0.1 mm 8 mps 738 mmHg 70%
    13:00 +8°C° 0.1 mm 9 mps 738 mmHg 63%
    14:00 +7°C° 0 mm 8 mps 738 mmHg 63%
    15:00 +6°C° 0 mm 7 mps 738 mmHg 62%
    16:00 +6°C° 0 mm 7 mps 737 mmHg 62%
    17:00 +5°C° 0 mm 6 mps 737 mmHg 67%
    18:00 +5°C° 0 mm 5 mps 738 mmHg 71%
    19:00 +3°C° 0 mm 5 mps 738 mmHg 76%
    20:00 +2°C° 0 mm 5 mps 738 mmHg 74%
    21:00 +2°C° 0 mm 6 mps 738 mmHg 72%
    22:00 +2°C° 0 mm 6 mps 738 mmHg 71%
    23:00 +1°C° 0 mm 6 mps 738 mmHg 71%

    26 February, Wednesday

    Time Temperature Precipitation Wind Pressure Humidity
    00:00 +1°C° 0 mm 6 mps 738 mmHg 71%
    01:00 +1°C° 0 mm 6 mps 738 mmHg 71%
    02:00 -1°C° 0 mm 6 mps 738 mmHg 73%
    03:00 -1°C° 0 mm 6 mps 738 mmHg 74%
    04:00 0°C° 0 mm 5 mps 737 mmHg 75%
    05:00 0°C° 0 mm 5 mps 737 mmHg 77%
    06:00 -1°C° 0 mm 5 mps 737 mmHg 78%
    07:00 -2°C° 0 mm 6 mps 737 mmHg 79%
    08:00 -1°C° 0 mm 6 mps 737 mmHg 73%
    09:00 +2°C° 0 mm 6 mps 737 mmHg 67%
    10:00 +3°C° 0 mm 6 mps 737 mmHg 61%
    11:00 +4°C° 0 mm 6 mps 737 mmHg 58%
    12:00 +6°C° 0 mm 5 mps 737 mmHg 55%
    13:00 +6°C° 0 mm 5 mps 736 mmHg 52%
    14:00 +6°C° 0 mm 4 mps 736 mmHg 56%
    15:00 +6°C° 0 mm 4 mps 736 mmHg 60%
    16:00 +7°C° 0 mm 3 mps 736 mmHg 64%
    17:00 +5°C° 0.1 mm 4 mps 736 mmHg 69%
    18:00 +4°C° 0.1 mm 4 mps 737 mmHg 73%
    19:00 +2°C° 0.1 mm 5 mps 737 mmHg 78%
    20:00 +3°C° 0 mm 4 mps 737 mmHg 78%
    21:00 +1°C° 0 mm 4 mps 738 mmHg 79%
    22:00 +1°C° 0 mm 3 mps 738 mmHg 79%
    23:00 0°C° 0 mm 4 mps 738 mmHg 81%

    27 February, Thursday

    Time Temperature Precipitation Wind Pressure Humidity
    00:00 0°C° 0 mm 4 mps 738 mmHg 83%
    01:00 0°C° 0 mm 5 mps 739 mmHg 86%
    02:00 0°C° 0.1 mm 5 mps 739 mmHg 88%
    03:00 0°C° 0.1 mm 5 mps 739 mmHg 90%
    04:00 0°C° 0.1 mm 5 mps 740 mmHg 93%
    05:00 -1°C° 0.1 mm 5 mps 740 mmHg 92%
    06:00 -1°C° 0.1 mm 5 mps 740 mmHg 91%
    07:00 -1°C° 0.1 mm 5 mps 741 mmHg 90%
    08:00 -1°C° 0.1 mm 5 mps 741 mmHg 85%
    09:00 0°C° 0.1 mm 5 mps 742 mmHg 81%
    10:00 0°C° 0.1 mm 5 mps 742 mmHg 76%
    11:00 0°C° 0 mm 5 mps 743 mmHg 73%
    12:00 0°C° 0 mm 5 mps 743 mmHg 71%
    13:00 +1°C° 0 mm 4 mps 743 mmHg 69%
    14:00 +1°C° 0 mm 4 mps 743 mmHg 68%
    15:00 +1°C° 0 mm 4 mps 743 mmHg 67%
    16:00 +1°C° 0 mm 4 mps 744 mmHg 67%
    17:00 +1°C° 0 mm 3 mps 744 mmHg 71%
    18:00 0°C° 0 mm 3 mps 744 mmHg 76%
    19:00 +1°C° 0 mm 2 mps 744 mmHg 81%
    20:00 -1°C° 0 mm 2 mps 744 mmHg 82%
    21:00 -1°C° 0 mm 2 mps 744 mmHg 84%
    22:00 -1°C° 0 mm 2 mps 744 mmHg 85%
    23:00 -1°C° 0 mm 2 mps 743 mmHg 85%

    28 February, Friday

    Time Temperature Precipitation Wind Pressure Humidity
    00:00 -1°C° 0 mm 3 mps 743 mmHg 84%
    01:00 -1°C° 0 mm 3 mps 742 mmHg 84%
    02:00 -2°C° 0 mm 4 mps 741 mmHg 82%
    03:00 -2°C° 0 mm 4 mps 740 mmHg 81%
    04:00 -1°C° 0 mm 5 mps 739 mmHg 79%
    05:00 -2°C° 0.1 mm 6 mps 738 mmHg 79%
    06:00 -2°C° 0.1 mm 7 mps 737 mmHg 78%
    07:00 -2°C° 0.1 mm 8 mps 736 mmHg 77%
    08:00 -1°C° 0.8 mm 8 mps 736 mmHg 81%
    09:00 0°C° 0.8 mm 8 mps 735 mmHg 85%
    10:00 0°C° 0.8 mm 8 mps 735 mmHg 88%
    11:00 +1°C° 0.1 mm 9 mps 735 mmHg 81%
    12:00 +1°C° 0.1 mm 10 mps 735 mmHg 73%
    13:00 +2°C° 0.1 mm 11 mps 734 mmHg 65%
    14:00 +1°C° 0.3 mm 11 mps 734 mmHg 72%
    15:00 +1°C° 0.3 mm 11 mps 735 mmHg 79%
    16:00 -1°C° 0.3 mm 11 mps 735 mmHg 85%
    17:00 -2°C° 0.4 mm 10 mps 736 mmHg 88%
    18:00 -1°C° 0.4 mm 9 mps 737 mmHg 91%
    19:00 -1°C° 0.4 mm 7 mps 738 mmHg 94%
    20:00 -1°C° 0.2 mm 8 mps 739 mmHg 89%
    21:00 -1°C° 0.2 mm 8 mps 741 mmHg 85%
    22:00 -2°C° 0.2 mm 8 mps 742 mmHg 81%
    23:00 -2°C° 0 mm 7 mps 743 mmHg 82%
    Show more